This is the latest recevied weather packets stored in our database for station/object FW7644. If no packets are shown the sender has not sent any weather packets the latest 10 day(s).
| Time | Temp. | Humidity | Pressure | Rain* | Wind** | Luminosity | Snow |
|---|---|---|---|---|---|---|---|
| 1777512729 | 14.44° C | 99% | 1018.1 hPa | 0.76 mm | - | - | - |
| 1777512427 | 14.44° C | 99% | 1018.1 hPa | 1.02 mm | - | - | - |
| 1777512125 | 14.44° C | 99% | 1018.3 hPa | 1.02 mm | - | - | - |
| 1777511823 | 14.44° C | 99% | 1018.5 hPa | 1.52 mm | - | - | - |
| 1777511521 | 14.44° C | 99% | 1018.7 hPa | 1.27 mm | - | - | - |
| 1777511219 | 14.44° C | 99% | 1018.9 hPa | 2.29 mm | - | - | - |
| 1777510917 | 14.44° C | 99% | 1018.7 hPa | 2.29 mm | - | - | - |
| 1777510615 | 14.44° C | 99% | 1018.6 hPa | 2.79 mm | - | - | - |
| 1777510313 | 14.44° C | 99% | 1018.8 hPa | 2.79 mm | - | - | - |
| 1777510011 | 14.44° C | 99% | 1018.9 hPa | 3.81 mm | - | - | - |
| 1777509709 | 14.44° C | 99% | 1019 hPa | 3.81 mm | - | - | - |
| 1777509407 | 14.44° C | 99% | 1019.1 hPa | 4.57 mm | - | - | - |
| 1777509104 | 14.44° C | 99% | 1018.8 hPa | 4.32 mm | - | - | - |
| 1777508802 | 14.44° C | 99% | 1018.5 hPa | 4.83 mm | - | - | - |
| 1777508500 | 14.44° C | 99% | 1019 hPa | 4.57 mm | - | - | - |
| 1777508198 | 14.44° C | 99% | 1018.5 hPa | 6.1 mm | - | - | - |
| 1777507896 | 14.44° C | 99% | 1018.1 hPa | 5.59 mm | - | - | - |
| 1777507594 | 14.44° C | 99% | 1018.3 hPa | 7.11 mm | - | - | - |
| 1777507293 | 14.44° C | 99% | 1018.8 hPa | 6.6 mm | - | - | - |
| 1777506990 | 14.44° C | 99% | 1019 hPa | 6.35 mm | - | - | - |
| 1777506689 | 14.44° C | 99% | 1018.9 hPa | 5.84 mm | - | - | - |
| 1777506386 | 14.44° C | 99% | 1019 hPa | 6.86 mm | - | - | - |
| 1777506084 | 14.44° C | 99% | 1018.9 hPa | 6.35 mm | - | - | - |
| 1777505783 | 14.44° C | 99% | 1018.8 hPa | 6.35 mm | - | - | - |
| 1777505480 | 14.44° C | 99% | 1018.7 hPa | 5.84 mm | - | - | - |
* Rain latest hour (hover to see other rain measurements)
** Current wind speed in m/s (hover to see current wind gust speed)